FW1340 Weather Reports


Display with metric or nautical units.
time (UTC)temp
F
wind
direction
speed
MPH
gust
MPH
rain 1hr
in
rain 24hr
in
rain mn
in
humidity
%
barometer
mb
20220818171604 80 257 0.0 0.0 0.00 0.00 0.00 48 1012.6
20220818170054 79 254 0.0 0.0 0.00 0.00 0.00 49 1012.5
20220818164555 78 238 0.0 0.0 0.00 0.00 0.00 49 1012.5
20220818163050 77 246 0.0 0.0 0.00 0.00 0.00 51 1012.4
20220818161543 76 252 0.0 0.0 0.00 0.00 0.00 53 1012.5
20220818160038 75 252 0.0 0.0 0.00 0.00 0.00 54 1012.5
20220818154538 74 254 0.0 0.0 0.00 0.00 0.00 56 1012.4
20220818153036 73 216 0.0 0.0 0.00 0.00 0.00 57 1012.2
20220818151529 71 216 0.0 0.0 0.00 0.00 0.00 61 1012.2
20220818150032 69 216 0.0 0.0 0.00 0.00 0.00 64 1012.3
20220818144518 67 216 0.0 0.0 0.00 0.00 0.00 68 1012.2
20220818143017 66 216 0.0 0.0 0.00 0.00 0.00 71 1012.3
20220818141510 64 216 0.0 0.0 0.00 0.00 0.00 71 1012.2
20220818140009 63 216 0.0 0.0 0.00 0.00 0.00 70 1012.1
20220818134503 63 216 0.0 0.0 0.00 0.00 0.00 71 1011.7
20220818133059 63 216 0.0 0.0 0.00 0.00 0.00 71 1011.5
20220818131559 63 216 0.0 0.0 0.00 0.00 0.00 71 1011.4
20220818130107 62 119 0.0 0.0 0.00 0.00 0.00 73 1011.1
20220818124600 62 85 0.0 0.0 0.00 0.00 0.00 73 1011.1
20220818123052 62 109 0.0 0.0 0.00 0.00 0.00 72 1010.9
20220818121553 63 79 0.0 0.0 0.00 0.00 0.00 71 1010.9
20220818120103 63 78 0.0 0.0 0.00 0.00 0.00 72 1011.0
20220818114551 63 79 0.0 0.0 0.00 0.00 0.00 72 1010.8
20220818113044 64 78 0.0 0.0 0.00 0.00 0.00 72 1010.9
20220818111549 64 78 0.0 0.0 0.00 0.00 0.00 71 1010.7
20220818110103 65 78 0.0 0.0 0.00 0.00 0.00 70 1010.7
20220818104538 66 78 0.0 0.0 0.00 0.00 0.00 68 1010.8
20220818103059 67 78 0.0 0.0 0.00 0.00 0.00 68 1010.7
20220818101539 67 78 0.0 0.0 0.00 0.00 0.00 65 1010.7
20220818100035 67 78 0.0 0.0 0.00 0.00 0.00 65 1010.7
20220818094532 67 78 0.0 0.0 0.00 0.00 0.00 65 1010.7
20220818093033 66 82 0.0 0.0 0.00 0.00 0.00 65 1010.5
20220818091530 67 9 0.0 0.0 0.00 0.00 0.00 66 1010.4
20220818090029 67 260 0.0 0.0 0.00 0.00 0.00 65 1010.5
20220818084542 67 254 0.0 0.0 0.00 0.00 0.00 61 1010.5
20220818083023 68 254 0.0 0.0 0.00 0.00 0.00 60 1010.6
20220818081521 69 254 0.0 0.0 0.00 0.00 0.00 58 1010.6
20220818080019 69 254 0.0 0.0 0.00 0.00 0.00 56 1010.7
20220818074516 71 254 0.0 0.0 0.00 0.00 0.00 55 1010.6
20220818073018 72 254 0.0 0.0 0.00 0.00 0.00 52 1010.6
20220818071508 74 254 0.0 0.0 0.00 0.00 0.00 51 1010.6
20220818070016 74 254 0.0 0.0 0.00 0.00 0.00 49 1010.4
20220818064508 75 252 0.0 0.0 0.00 0.00 0.00 48 1010.4
20220818063005 74 250 0.0 0.0 0.00 0.00 0.00 48 1010.3
20220818061502 76 38 0.0 0.0 0.00 0.00 0.00 48 1010.3
20220818060001 76 38 0.0 0.0 0.00 0.00 0.00 46 1010.4
20220818054501 77 38 0.0 0.0 0.00 0.00 0.00 45 1010.3
20220818053102 77 38 0.0 0.0 0.00 0.00 0.00 44 1010.3
20220818051610 78 248 0.0 0.0 0.00 0.00 0.00 45 1009.9
20220818050105 78 258 0.0 0.0 0.00 0.00 0.00 46 1009.8
20220818044615 78 264 0.0 0.0 0.00 0.00 0.00 46 1009.8
20220818043100 79 255 0.0 0.0 0.00 0.00 0.00 45 1009.8
20220818041629 80 261 0.0 0.0 0.00 0.00 0.00 43 1009.8
20220818040057 81 253 0.0 0.0 0.00 0.00 0.00 42 1009.8
20220818034556 81 313 0.0 0.0 0.00 0.00 0.00 41 1009.7
20220818033055 82 310 0.0 0.0 0.00 0.00 0.00 42 1009.7
20220818031614 83 250 0.0 0.0 0.00 0.00 0.00 39 1009.5
20220818030102 84 250 0.0 0.0 0.00 0.00 0.00 40 1009.5
20220818024554 86 243 0.0 0.0 0.00 0.00 0.00 40 1009.4
20220818023057 87 241 0.0 0.0 0.00 0.00 0.00 39 1009.3
20220818021554 90 243 0.0 0.0 0.00 0.00 0.00 41 1009.1
20220818020055 91 242 0.0 0.0 0.00 0.00 0.00 35 1009.0
20220818014608 91 242 0.0 0.0 0.00 0.00 0.00 34 1009.0
20220818013058 91 257 0.0 0.0 0.00 0.00 0.00 32 1009.2
20220818011620 91 250 0.0 0.0 0.00 0.00 0.00 31 1009.3
20220818010051 91 229 0.0 0.0 0.00 0.00 0.00 29 1009.4
20220818004648 92 238 0.0 0.0 0.00 0.00 0.00 29 1009.4
20220818003115 92 241 0.0 0.0 0.00 0.00 0.00 28 1008.8
20220818001549 91 255 0.0 0.0 0.00 0.00 0.00 30 1009.0
20220818000055 88 264 0.0 0.0 0.00 0.00 0.00 34 1009.3
20220817234547 87 316 0.0 0.0 0.00 0.00 0.00 33 1009.3
20220817233134 87 270 0.0 0.0 0.00 0.00 0.00 36 1009.8
20220817231603 86 234 0.0 0.0 0.00 0.00 0.00 36 1009.8
20220817230100 86 275 0.0 0.0 0.00 0.00 0.00 37 1009.7
20220817224553 86 247 0.0 0.0 0.00 0.00 0.00 37 1010.0
20220817223046 87 292 0.0 0.0 0.00 0.00 0.00 44 1009.9
20220817221547 87 243 0.0 0.0 0.00 0.00 0.00 44 1010.0
20220817220044 88 257 0.0 0.0 0.00 0.00 0.00 41 1010.1
20220817214611 88 278 0.0 0.0 0.00 0.00 0.00 41 1010.1
20220817213042 88 252 0.0 0.0 0.00 0.00 0.00 40 1010.3
20220817211540 89 224 0.0 0.0 0.00 0.00 0.00 39 1010.7
20220817210039 89 232 0.0 0.0 0.00 0.00 0.00 37 1010.6
20220817204540 89 249 0.0 0.0 0.00 0.00 0.00 40 1010.6
20220817203109 90 233 0.0 0.0 0.00 0.00 0.00 39 1010.5
20220817201536 91 248 0.0 0.0 0.00 0.00 0.00 39 1010.5
20220817200035 92 256 0.0 0.0 0.00 0.00 0.00 34 1010.1
20220817194557 91 254 0.0 0.0 0.00 0.00 0.00 35 1010.0
20220817193037 89 303 0.0 0.0 0.00 0.00 0.00 40 1010.1
20220817191523 87 248 0.0 0.0 0.00 0.00 0.00 40 1010.3
20220817190018 85 53 0.0 0.0 0.00 0.00 0.00 40 1010.4
20220817184517 85 55 0.0 0.0 0.00 0.00 0.00 42 1010.7
20220817183019 85 227 0.0 0.0 0.00 0.00 0.00 44 1010.1
20220817181513 84 302 0.0 0.0 0.00 0.00 0.00 44 1010.7
20220817180018 83 295 0.0 0.0 0.00 0.00 0.00 43 1010.9
20220817174507 82 264 0.0 0.0 0.00 0.00 0.00 47 1010.9
20220817173004 82 260 0.0 0.0 0.00 0.00 0.00 48 1011.1